76.1670;-153.4330;1; 368.219; 167.096;1988.12.01 12:00:00; -33.5;1008.4;   5.0; 340.0;    .000;    .000;   0.000; 90;
76.1670;-153.4455;2; 368.234; 167.126;1988.12.01 18:00:00; -32.8;1008.8;   4.0; 320.0;    .332;    .250;   0.055;270;
76.1670;-153.4580;2; 368.249; 167.155;1988.12.02 00:00:00; -35.5;1010.4;   4.0; 300.0;    .664;    .500;   0.055;270;
76.1670;-153.4705;2; 368.263; 167.184;1988.12.02 06:00:00; -34.1;1010.6;   4.0; 280.0;    .997;    .750;   0.055;270;
76.1670;-153.4830;2; 368.278; 167.213;1988.12.02 12:00:00; -31.1;1010.3;   5.0; 280.0;   1.329;   1.000;   0.055;270;
76.1628;-153.4665;2; 368.300; 167.154;1988.12.02 18:00:00; -32.6;1010.3;   5.0; 270.0;   1.975;   1.250;   0.108;137;
76.1585;-153.4500;2; 368.323; 167.094;1988.12.03 00:00:00; -32.2;1010.7;   5.0; 270.0;   2.619;   1.500;   0.107;137;
76.1543;-153.4335;2; 368.345; 167.035;1988.12.03 06:00:00; -32.6;1011.0;   4.0; 260.0;   3.264;   1.750;   0.107;137;
76.1500;-153.4170;2; 368.367; 166.976;1988.12.03 12:00:00; -32.2;1011.0;   6.0; 260.0;   3.909;   2.000;   0.107;137;
76.1500;-153.3503;2; 368.288; 166.819;1988.12.03 18:00:00; -33.9;1010.0;   4.0; 240.0;   5.686;   2.250;   0.296; 90;
76.1500;-153.2835;2; 368.210; 166.663;1988.12.04 00:00:00; -34.4;1009.6;   4.0; 210.0;   7.463;   2.500;   0.296; 90;
76.1500;-153.2168;2; 368.131; 166.507;1988.12.04 06:00:00; -33.4;1008.0;   4.0; 190.0;   9.239;   2.750;   0.296; 90;
76.1500;-153.1500;2; 368.053; 166.351;1988.12.04 12:00:00; -36.8;1007.4;   4.0; 180.0;  11.016;   3.000;   0.296; 90;
76.1543;-153.1333;2; 367.991; 166.333;1988.12.04 18:00:00; -35.8;1007.1;   4.0; 170.0;  11.666;   3.250;   0.108; 43;
76.1585;-153.1165;2; 367.930; 166.315;1988.12.05 00:00:00; -36.5;1007.1;   4.0; 160.0;  12.315;   3.500;   0.108; 43;
76.1628;-153.0998;2; 367.869; 166.297;1988.12.05 06:00:00; -36.5;1006.7;   4.0; 160.0;  12.964;   3.750;   0.108; 43;
76.1670;-153.0830;2; 367.807; 166.279;1988.12.05 12:00:00; -29.8;1005.9;   7.0; 170.0;  13.614;   4.000;   0.108; 43;
76.1752;-153.0665;2; 367.707; 166.281;1988.12.05 18:00:00; -27.9;1006.2;   6.0; 230.0;  14.630;   4.250;   0.169; 26;
76.1835;-153.0500;2; 367.607; 166.283;1988.12.06 00:00:00; -26.3;1006.6;   8.0; 220.0;  15.648;   4.500;   0.170; 26;
76.1917;-153.0335;2; 367.507; 166.286;1988.12.06 06:00:00; -27.3;1008.4;   8.0; 270.0;  16.664;   4.750;   0.169; 26;
76.2000;-153.0170;2; 367.407; 166.288;1988.12.06 12:00:00; -30.1;1015.1;   6.0; 280.0;  17.680;   5.000;   0.169; 26;
76.2000;-152.9835;2; 367.368; 166.211;1988.12.06 18:00:00; -30.0;1017.4;   5.0; 240.0;  18.569;   5.250;   0.148; 90;
76.2000;-152.9500;2; 367.328; 166.133;1988.12.07 00:00:00; -28.6;1020.0;   6.0; 250.0;  19.458;   5.500;   0.148; 90;
76.2000;-152.9165;2; 367.288; 166.055;1988.12.07 06:00:00; -28.4;1023.6;   5.0; 250.0;  20.346;   5.750;   0.148; 90;
76.2000;-152.8830;2; 367.248; 165.977;1988.12.07 12:00:00; -28.7;1025.9;   4.0; 240.0;  21.235;   6.000;   0.148; 90;
76.1876;-152.7953;2; 367.265; 165.711;1988.12.07 18:00:00; -29.9;1026.0;   4.0; 220.0;  23.943;   6.250;   0.451;121;
76.1751;-152.7077;2; 367.282; 165.445;1988.12.08 00:00:00; -28.0;1025.6;   5.0; 210.0;  26.652;   6.500;   0.452;121;
76.1626;-152.6203;2; 367.298; 165.179;1988.12.08 06:00:00; -26.1;1021.4;   4.0; 190.0;  29.361;   6.750;   0.451;121;
76.1500;-152.5330;2; 367.315; 164.913;1988.12.08 12:00:00; -25.2;1017.5;   3.0; 180.0;  32.069;   7.000;   0.451;121;
76.1543;-152.5455;2; 367.289; 164.963;1988.12.08 18:00:00; -24.0;1014.2;   4.0; 210.0;  32.647;   7.250;   0.096;325;
76.1585;-152.5580;2; 367.262; 165.014;1988.12.09 00:00:00; -24.4;1012.4;   3.0; 190.0;  33.225;   7.500;   0.096;325;
76.1628;-152.5705;2; 367.236; 165.064;1988.12.09 06:00:00; -26.7;1011.0;   4.0; 220.0;  33.803;   7.750;   0.096;325;
76.1670;-152.5830;2; 367.210; 165.115;1988.12.09 12:00:00; -29.3;1011.4;   3.0; 280.0;  34.380;   8.000;   0.096;325;
76.1585;-152.5955;2; 367.308; 165.101;1988.12.09 18:00:00; -29.2;1012.0;   3.0; 330.0;  35.382;   8.250;   0.167;199;
76.1500;-152.6080;2; 367.405; 165.087;1988.12.10 00:00:00; -33.7;1013.0;   3.0; 340.0;  36.384;   8.500;   0.167;199;
76.1415;-152.6205;2; 367.503; 165.073;1988.12.10 06:00:00; -33.2;1014.0;   2.0; 350.0;  37.386;   8.750;   0.167;199;
76.1330;-152.6330;2; 367.601; 165.060;1988.12.10 12:00:00; -32.0;1015.0;   1.0; 360.0;  38.388;   9.000;   0.167;199;
76.1247;-152.6415;2; 367.691; 165.038;1988.12.10 18:00:00; -32.9;1014.8;   1.0; 330.0;  39.334;   9.250;   0.158;194;
76.1165;-152.6500;2; 367.782; 165.017;1988.12.11 00:00:00; -34.2;1013.9;   1.0; 320.0;  40.278;   9.500;   0.157;194;
76.1083;-152.6585;2; 367.872; 164.995;1988.12.11 06:00:00; -34.0;1011.5;   0.0;   0.0;  41.223;   9.750;   0.157;194;
76.1000;-152.6670;2; 367.963; 164.973;1988.12.11 12:00:00; -31.5;1009.5;   3.0;  40.0;  42.168;  10.000;   0.158;194;
76.1000;-152.6835;2; 367.982; 165.012;1988.12.11 18:00:00; -27.3;1006.4;   3.0;  30.0;  42.609;  10.250;   0.073;270;
76.1000;-152.7000;2; 368.002; 165.050;1988.12.12 00:00:00; -23.1;1004.0;   5.0;  50.0;  43.050;  10.500;   0.073;270;
76.1000;-152.7165;2; 368.022; 165.089;1988.12.12 06:00:00; -20.9;1002.0;   7.0;  40.0;  43.491;  10.750;   0.074;270;
76.1000;-152.7330;2; 368.042; 165.127;1988.12.12 12:00:00; -22.0;1000.3;   8.0;  50.0;  43.931;  11.000;   0.073;270;
76.1000;-152.7997;2; 368.122; 165.284;1988.12.12 18:00:00; -21.5; 999.8;   5.0;  30.0;  45.714;  11.250;   0.297;270;
76.1000;-152.8665;2; 368.202; 165.440;1988.12.13 00:00:00; -22.8; 999.9;   6.0;  10.0;  47.497;  11.500;   0.297;270;
76.1000;-152.9332;2; 368.282; 165.596;1988.12.13 06:00:00; -22.1;1000.2;   5.0; 360.0;  49.280;  11.750;   0.297;270;
76.1000;-153.0000;2; 368.362; 165.752;1988.12.13 12:00:00; -24.0;1002.0;   5.0; 340.0;  51.063;  12.000;   0.297;270;
76.0918;-153.0544;2; 368.507; 165.839;1988.12.13 18:00:00; -27.7;1004.0;   4.0; 290.0;  52.780;  12.250;   0.286;238;
76.0835;-153.1086;2; 368.653; 165.925;1988.12.14 00:00:00; -29.5;1007.1;   3.0; 260.0;  54.497;  12.500;   0.286;238;
76.0753;-153.1629;2; 368.798; 166.012;1988.12.14 06:00:00; -22.4;1008.2;   4.0; 220.0;  56.213;  12.750;   0.286;238;
76.0670;-153.2170;2; 368.943; 166.098;1988.12.14 12:00:00; -20.7;1008.6;   4.0; 230.0;  57.929;  13.000;   0.286;238;
76.0628;-153.1752;2; 368.935; 165.979;1988.12.14 18:00:00; -27.4;1006.7;   4.0; 180.0;  59.143;  13.250;   0.202;113;
76.0585;-153.1335;2; 368.926; 165.860;1988.12.15 00:00:00; -24.2;1004.8;   4.0; 180.0;  60.358;  13.500;   0.202;113;
76.0543;-153.0917;2; 368.918; 165.740;1988.12.15 06:00:00; -23.0;1002.7;   4.0; 170.0;  61.572;  13.750;   0.202;113;
76.0500;-153.0500;2; 368.910; 165.621;1988.12.15 12:00:00; -21.9;1001.5;   3.0; 170.0;  62.786;  14.000;   0.202;113;
76.0543;-153.0168;2; 368.828; 165.564;1988.12.15 18:00:00; -19.3;1001.2;   3.0; 190.0;  63.794;  14.250;   0.168; 62;
76.0585;-152.9835;2; 368.747; 165.507;1988.12.16 00:00:00; -22.0;1002.7;   4.0; 190.0;  64.803;  14.500;   0.168; 62;
76.0628;-152.9503;2; 368.666; 165.450;1988.12.16 06:00:00; -24.4;1004.0;   4.0; 180.0;  65.811;  14.750;   0.168; 62;
76.0670;-152.9170;2; 368.585; 165.393;1988.12.16 12:00:00; -27.1;1005.5;   3.0; 250.0;  66.819;  15.000;   0.168; 62;
76.0670;-152.8878;2; 368.549; 165.325;1988.12.16 18:00:00; -28.7;1006.7;   2.0; 360.0;  67.602;  15.250;   0.131; 90;
76.0670;-152.8585;2; 368.514; 165.256;1988.12.17 00:00:00; -27.3;1007.0;   1.0;  30.0;  68.385;  15.500;   0.131; 90;
76.0670;-152.8293;2; 368.479; 165.188;1988.12.17 06:00:00; -28.2;1005.9;   1.0;  30.0;  69.169;  15.750;   0.131; 90;
76.0670;-152.8000;2; 368.444; 165.119;1988.12.17 12:00:00; -28.0;1005.4;   0.0;   0.0;  69.952;  16.000;   0.131; 90;
76.0670;-152.8293;2; 368.479; 165.188;1988.12.17 18:00:00; -28.5;1005.5;   2.0;  20.0;  70.735;  16.250;   0.131;270;
76.0670;-152.8585;2; 368.514; 165.256;1988.12.18 00:00:00; -29.3;1006.0;   3.0;  40.0;  71.518;  16.500;   0.131;270;
76.0670;-152.8878;2; 368.549; 165.325;1988.12.18 06:00:00; -27.9;1005.8;   2.0;  50.0;  72.301;  16.750;   0.131;270;
76.0670;-152.9170;2; 368.585; 165.393;1988.12.18 12:00:00; -26.4;1005.4;   3.0;  30.0;  73.085;  17.000;   0.131;270;
76.0670;-152.9753;2; 368.654; 165.530;1988.12.18 18:00:00; -24.4;1004.7;   5.0;  40.0;  74.644;  17.250;   0.260;270;
76.0670;-153.0335;2; 368.724; 165.667;1988.12.19 00:00:00; -22.2;1003.1;   8.0;  20.0;  76.203;  17.500;   0.260;270;
76.0670;-153.0918;2; 368.793; 165.804;1988.12.19 06:00:00; -19.7;1001.2;   8.0;  30.0;  77.763;  17.750;   0.260;270;
76.0670;-153.1500;2; 368.863; 165.941;1988.12.19 12:00:00; -19.3;1000.3;   6.0;  40.0;  79.323;  18.000;   0.260;270;
76.0628;-153.2501;2; 369.023; 166.155;1988.12.19 18:00:00; -17.8; 998.3;   5.0;  20.0;  82.043;  18.250;   0.453;260;
76.0586;-153.3501;2; 369.183; 166.370;1988.12.20 00:00:00; -16.5; 997.0;   3.0; 350.0;  84.763;  18.500;   0.453;260;
76.0543;-153.4501;2; 369.343; 166.585;1988.12.20 06:00:00; -17.5; 996.3;   3.0;  10.0;  87.484;  18.750;   0.453;260;
76.0500;-153.5500;2; 369.502; 166.800;1988.12.20 12:00:00; -20.9; 996.6;   4.0; 340.0;  90.204;  19.000;   0.453;260;
76.0458;-153.5668;2; 369.564; 166.819;1988.12.20 18:00:00; -18.4; 996.8;   5.0; 330.0;  90.857;  19.250;   0.109;224;
76.0415;-153.5835;2; 369.625; 166.838;1988.12.21 00:00:00; -19.3; 998.0;   4.0; 340.0;  91.509;  19.500;   0.109;224;
76.0372;-153.6003;2; 369.687; 166.857;1988.12.21 06:00:00; -19.6; 999.5;   4.0; 340.0;  92.161;  19.750;   0.109;224;
76.0330;-153.6170;2; 369.748; 166.876;1988.12.21 12:00:00; -29.0;1001.5;   4.0;  10.0;  92.813;  20.000;   0.109;224;
76.0247;-153.6210;2; 369.833; 166.845;1988.12.21 18:00:00; -27.0;1002.6;   4.0; 350.0;  93.736;  20.250;   0.154;187;
76.0165;-153.6250;2; 369.919; 166.814;1988.12.22 00:00:00; -25.9;1003.5;   3.0; 350.0;  94.660;  20.500;   0.154;187;
76.0082;-153.6290;2; 370.005; 166.784;1988.12.22 06:00:00; -29.7;1004.3;   2.0; 340.0;  95.584;  20.750;   0.154;187;
76.0000;-153.6330;2; 370.090; 166.753;1988.12.22 12:00:00; -30.0;1006.2;   3.0; 330.0;  96.507;  21.000;   0.154;187;
75.9958;-153.6290;2; 370.127; 166.723;1988.12.22 18:00:00; -26.0;1007.0;   4.0; 300.0;  96.992;  21.250;   0.081;167;
75.9915;-153.6250;2; 370.164; 166.693;1988.12.23 00:00:00; -23.9;1008.0;   5.0; 290.0;  97.476;  21.500;   0.081;167;
75.9873;-153.6210;2; 370.201; 166.662;1988.12.23 06:00:00; -22.5;1009.8;   4.0; 290.0;  97.961;  21.750;   0.081;167;
75.9830;-153.6170;2; 370.238; 166.632;1988.12.23 12:00:00; -28.8;1011.4;   3.0; 280.0;  98.446;  22.000;   0.081;167;
75.9705;-153.5751;2; 370.311; 166.472;1988.12.23 18:00:00; -30.1;1013.8;   7.0; 280.0; 100.235;  22.250;   0.298;141;
75.9580;-153.5334;2; 370.384; 166.312;1988.12.24 00:00:00; -34.5;1017.5;   7.0; 280.0; 102.025;  22.500;   0.298;141;
75.9455;-153.4916;2; 370.457; 166.151;1988.12.24 06:00:00; -36.1;1021.6;   6.0; 270.0; 103.813;  22.750;   0.298;141;
75.9330;-153.4500;2; 370.531; 165.991;1988.12.24 12:00:00; -36.5;1024.6;   5.0; 270.0; 105.602;  23.000;   0.298;141;
75.9248;-153.3831;2; 370.531; 165.792;1988.12.24 18:00:00; -36.0;1026.6;   3.0; 280.0; 107.628;  23.250;   0.338;117;
75.9165;-153.3163;2; 370.532; 165.592;1988.12.25 00:00:00; -36.3;1028.3;   3.0; 270.0; 109.653;  23.500;   0.338;117;
75.9083;-153.2496;2; 370.533; 165.393;1988.12.25 06:00:00; -35.6;1027.9;   2.0;  10.0; 111.679;  23.750;   0.338;117;
75.9000;-153.1830;2; 370.534; 165.193;1988.12.25 12:00:00; -35.7;1028.2;   3.0;  50.0; 113.705;  24.000;   0.338;117;
75.9043;-153.1873;2; 370.497; 165.225;1988.12.25 18:00:00; -35.8;1025.9;   4.0;  80.0; 114.191;  24.250;   0.081;346;
75.9085;-153.1915;2; 370.461; 165.256;1988.12.26 00:00:00; -33.7;1026.2;   4.0;  80.0; 114.678;  24.500;   0.081;346;
75.9128;-153.1958;2; 370.425; 165.287;1988.12.26 06:00:00; -32.5;1024.3;   5.0;  80.0; 115.164;  24.750;   0.081;346;
75.9170;-153.2000;2; 370.388; 165.318;1988.12.26 12:00:00; -31.5;1022.8;   6.0;  90.0; 115.650;  25.000;   0.081;346;
75.9335;-153.2705;2; 370.311; 165.567;1988.12.26 18:00:00; -29.2;1019.6;  10.0;  90.0; 118.299;  25.250;   0.441;314;
75.9500;-153.3412;2; 370.234; 165.816;1988.12.27 00:00:00; -27.5;1016.7;  12.0; 100.0; 120.947;  25.500;   0.441;314;
75.9665;-153.4120;2; 370.157; 166.065;1988.12.27 06:00:00; -22.5;1011.2;  13.0; 100.0; 123.595;  25.750;   0.441;314;
75.9830;-153.4830;2; 370.080; 166.314;1988.12.27 12:00:00; -21.0;1008.2;  12.0; 110.0; 126.244;  26.000;   0.441;314;
76.0291;-153.5862;2; 369.750; 166.784;1988.12.27 18:00:00; -21.8;1005.0;  12.0; 120.0; 132.070;  26.250;   0.971;332;
76.0751;-153.6901;2; 369.421; 167.253;1988.12.28 00:00:00; -22.6;1001.9;  10.0; 110.0; 137.896;  26.500;   0.971;331;
76.1211;-153.7947;2; 369.091; 167.722;1988.12.28 06:00:00; -22.0; 997.8;   9.0; 110.0; 143.723;  26.750;   0.971;331;
76.1670;-153.9000;2; 368.761; 168.191;1988.12.28 12:00:00; -22.2; 995.8;   9.0; 120.0; 149.549;  27.000;   0.971;331;
76.1960;-153.9745;2; 368.562; 168.506;1988.12.28 18:00:00; -23.4; 994.7;   8.0; 120.0; 153.336;  27.250;   0.631;328;
76.2251;-154.0494;2; 368.362; 168.821;1988.12.29 00:00:00; -24.7; 994.7;   8.0; 110.0; 157.123;  27.500;   0.631;328;
76.2540;-154.1245;2; 368.162; 169.135;1988.12.29 06:00:00; -24.5; 993.5;   9.0; 110.0; 160.910;  27.750;   0.631;328;
76.2830;-154.2000;2; 367.962; 169.450;1988.12.29 12:00:00; -23.2; 992.4;   7.0; 100.0; 164.696;  28.000;   0.631;328;
76.3123;-154.2745;2; 367.758; 169.763;1988.12.29 18:00:00; -22.1; 991.0;   9.0; 120.0; 168.499;  28.250;   0.634;329;
76.3416;-154.3494;2; 367.553; 170.076;1988.12.30 00:00:00; -18.9; 991.9;   9.0; 130.0; 172.302;  28.500;   0.634;329;
76.3708;-154.4245;2; 367.348; 170.389;1988.12.30 06:00:00; -17.4; 992.3;   8.0; 130.0; 176.103;  28.750;   0.634;329;
76.4000;-154.5000;2; 367.144; 170.702;1988.12.30 12:00:00; -21.7; 995.5;   7.0; 210.0; 179.905;  29.000;   0.634;329;
76.4167;-154.5207;2; 367.001; 170.829;1988.12.30 18:00:00; -24.6; 997.2;   7.0; 180.0; 181.844;  29.250;   0.323;344;
76.4335;-154.5414;2; 366.859; 170.956;1988.12.31 00:00:00; -25.3; 999.0;   7.0; 180.0; 183.784;  29.500;   0.323;344;
76.4502;-154.5622;2; 366.716; 171.082;1988.12.31 06:00:00; -25.6; 999.5;   6.0; 210.0; 185.724;  29.750;   0.323;344;
76.4670;-154.5830;2; 366.574; 171.209;1988.12.31 12:00:00; -29.6;1001.4;   5.0; 220.0; 187.664;  30.000;   0.323;344;
76.4795;-154.5456;2; 366.409; 171.182;1988.12.31 18:00:00; -32.0;1001.6;   3.0; 300.0; 189.361;  30.250;   0.283; 35;
76.4920;-154.5081;2; 366.245; 171.154;1989.01.01 00:00:00; -33.0;1002.3;   2.0;  10.0; 191.058;  30.500;   0.283; 35;
76.5045;-154.4706;2; 366.080; 171.126;1989.01.01 06:00:00; -33.5;1000.8;   4.0;  30.0; 192.755;  30.750;   0.283; 35;
76.5170;-154.4330;2; 365.915; 171.099;1989.01.01 12:00:00; -31.5;1000.8;   5.0;  50.0; 194.452;  31.000;   0.283; 35;
76.5128;-154.4916;2; 366.022; 171.214;1989.01.01 18:00:00; -29.7;1000.4;   7.0;  30.0; 196.042;  31.250;   0.265;253;
76.5085;-154.5501;2; 366.128; 171.328;1989.01.02 00:00:00; -24.3;1001.4;   7.0;  40.0; 197.631;  31.500;   0.265;253;
76.5043;-154.6086;2; 366.234; 171.443;1989.01.02 06:00:00; -20.8;1003.4;   7.0;  70.0; 199.221;  31.750;   0.265;253;
76.5000;-154.6670;2; 366.340; 171.558;1989.01.02 12:00:00; -22.9;1005.9;   7.0;  70.0; 200.810;  32.000;   0.265;253;
76.5083;-154.7751;2; 366.375; 171.846;1989.01.02 18:00:00; -27.1;1007.0;   8.0;  90.0; 203.763;  32.250;   0.492;288;
76.5166;-154.8832;2; 366.411; 172.134;1989.01.03 00:00:00; -28.0;1009.4;   8.0;  80.0; 206.716;  32.500;   0.492;288;
76.5248;-154.9915;2; 366.446; 172.423;1989.01.03 06:00:00; -27.7;1010.2;  10.0; 100.0; 209.668;  32.750;   0.492;288;
76.5330;-155.1000;2; 366.482; 172.711;1989.01.03 12:00:00; -26.0;1010.0;  11.0;  90.0; 212.621;  33.000;   0.492;288;
76.5498;-155.1996;2; 366.421; 173.018;1989.01.03 18:00:00; -24.7;1010.0;  11.0;  90.0; 215.806;  33.250;   0.531;306;
76.5666;-155.2995;2; 366.361; 173.325;1989.01.04 00:00:00; -28.4;1011.6;   9.0; 100.0; 218.990;  33.500;   0.531;306;
76.5833;-155.3996;2; 366.301; 173.633;1989.01.04 06:00:00; -29.8;1011.8;   8.0; 100.0; 222.175;  33.750;   0.531;306;
76.6000;-155.5000;2; 366.241; 173.940;1989.01.04 12:00:00; -28.6;1012.3;   9.0; 110.0; 225.359;  34.000;   0.531;306;
76.6250;-155.5621;2; 366.057; 174.196;1989.01.04 18:00:00; -28.2;1012.3;   8.0; 120.0; 228.569;  34.250;   0.535;330;
76.6500;-155.6245;2; 365.873; 174.453;1989.01.05 00:00:00; -27.9;1013.5;   6.0; 140.0; 231.779;  34.500;   0.535;330;
76.6750;-155.6871;2; 365.689; 174.709;1989.01.05 06:00:00; -26.8;1013.8;   4.0; 130.0; 234.988;  34.750;   0.535;330;
76.7000;-155.7500;2; 365.505; 174.966;1989.01.05 12:00:00; -24.6;1014.8;   5.0; 120.0; 238.198;  35.000;   0.535;330;
76.7125;-155.7832;2; 365.415; 175.098;1989.01.05 18:00:00; -24.1;1013.9;   7.0; 100.0; 239.828;  35.250;   0.272;329;
76.7250;-155.8164;2; 365.324; 175.230;1989.01.06 00:00:00; -24.1;1012.0;   9.0; 100.0; 241.457;  35.500;   0.271;329;
76.7375;-155.8497;2; 365.234; 175.362;1989.01.06 06:00:00; -20.6;1007.6;  11.0; 110.0; 243.085;  35.750;   0.271;329;
76.7500;-155.8830;2; 365.144; 175.494;1989.01.06 12:00:00; -18.3;1005.1;  11.0; 120.0; 244.713;  36.000;   0.271;329;
76.7750;-155.9576;2; 364.970; 175.776;1989.01.06 18:00:00; -16.9;1001.4;  11.0; 100.0; 248.083;  36.250;   0.562;326;
76.8000;-156.0324;2; 364.796; 176.058;1989.01.07 00:00:00; -16.3; 998.7;  12.0; 100.0; 251.453;  36.500;   0.562;326;
76.8250;-156.1076;2; 364.623; 176.340;1989.01.07 06:00:00; -15.7; 995.2;  12.0; 130.0; 254.822;  36.750;   0.561;326;
76.8500;-156.1830;2; 364.449; 176.622;1989.01.07 12:00:00;  -9.5; 997.1;   9.0; 180.0; 258.192;  37.000;   0.562;325;
76.8875;-156.1954;2; 364.087; 176.816;1989.01.07 18:00:00; -11.6; 997.0;  12.0; 150.0; 262.373;  37.250;   0.697;356;
76.9250;-156.2079;2; 363.724; 177.009;1989.01.08 00:00:00;  -8.8; 996.3;  13.0; 150.0; 266.555;  37.500;   0.697;356;
76.9625;-156.2204;2; 363.362; 177.203;1989.01.08 06:00:00; -11.4; 994.8;  12.0; 150.0; 270.737;  37.750;   0.697;356;
77.0000;-156.2330;2; 362.999; 177.397;1989.01.08 12:00:00; -13.0; 993.1;  12.0; 140.0; 274.918;  38.000;   0.697;356;
77.0333;-156.2000;2; 362.634; 177.469;1989.01.08 18:00:00; -12.7; 991.6;  10.0; 150.0; 278.707;  38.250;   0.631; 13;
77.0665;-156.1668;2; 362.269; 177.541;1989.01.09 00:00:00; -16.5; 991.8;   7.0; 150.0; 282.496;  38.500;   0.632; 13;
77.0998;-156.1335;2; 361.904; 177.614;1989.01.09 06:00:00; -20.7; 988.8;   6.0; 130.0; 286.285;  38.750;   0.631; 13;
77.1330;-156.1000;2; 361.539; 177.686;1989.01.09 12:00:00; -20.4; 987.4;   5.0; 110.0; 290.074;  39.000;   0.631; 13;
77.1455;-156.1207;2; 361.435; 177.787;1989.01.09 18:00:00; -20.3; 984.2;   2.0;  80.0; 291.555;  39.250;   0.247;340;
77.1580;-156.1414;2; 361.330; 177.889;1989.01.10 00:00:00; -19.5; 983.0;   6.0; 280.0; 293.036;  39.500;   0.247;340;
77.1705;-156.1622;2; 361.226; 177.990;1989.01.10 06:00:00; -25.0; 983.5;   7.0; 290.0; 294.518;  39.750;   0.247;340;
77.1830;-156.1830;2; 361.121; 178.091;1989.01.10 12:00:00; -28.1; 984.3;   5.0; 280.0; 295.999;  40.000;   0.247;340;
77.1790;-156.1955;2; 361.173; 178.101;1989.01.10 18:00:00; -29.3; 983.0;   6.0; 330.0; 296.540;  40.250;   0.090;215;
77.1750;-156.2080;2; 361.226; 178.111;1989.01.11 00:00:00; -28.9; 982.8;   6.0; 290.0; 297.082;  40.500;   0.090;215;
77.1710;-156.2205;2; 361.278; 178.122;1989.01.11 06:00:00; -30.1; 982.4;   7.0; 270.0; 297.623;  40.750;   0.090;215;
77.1670;-156.2330;2; 361.330; 178.132;1989.01.11 12:00:00; -31.0; 982.4;   7.0; 260.0; 298.164;  41.000;   0.090;215;
77.1628;-156.1704;2; 361.311; 177.974;1989.01.11 18:00:00; -29.1; 981.5;   7.0; 250.0; 299.780;  41.250;   0.269;107;
77.1585;-156.1079;2; 361.292; 177.817;1989.01.12 00:00:00; -30.8; 981.8;   8.0; 280.0; 301.395;  41.500;   0.269;107;
77.1543;-156.0454;2; 361.273; 177.659;1989.01.12 06:00:00; -31.0; 981.4;   9.0; 290.0; 303.010;  41.750;   0.269;107;
77.1500;-155.9830;2; 361.254; 177.502;1989.01.12 12:00:00; -29.5; 983.6;   9.0; 300.0; 304.625;  42.000;   0.269;107;
77.1375;-155.9078;2; 361.304; 177.279;1989.01.12 18:00:00; -27.5; 985.1;  11.0; 290.0; 306.947;  42.250;   0.387;127;
77.1250;-155.8327;2; 361.354; 177.057;1989.01.13 00:00:00; -30.5; 989.5;  10.0; 290.0; 309.267;  42.500;   0.387;127;
77.1125;-155.7578;2; 361.403; 176.834;1989.01.13 06:00:00; -30.9; 992.4;  10.0; 290.0; 311.587;  42.750;   0.387;127;
77.1000;-155.6830;2; 361.453; 176.612;1989.01.13 12:00:00; -32.4; 995.8;  10.0; 270.0; 313.908;  43.000;   0.387;127;
77.0793;-155.5825;2; 361.558; 176.295;1989.01.13 18:00:00; -33.6; 997.2;   7.0; 270.0; 317.303;  43.250;   0.566;133;
77.0586;-155.4824;2; 361.663; 175.979;1989.01.14 00:00:00; -34.2; 998.4;   6.0; 240.0; 320.697;  43.500;   0.566;133;
77.0378;-155.3825;2; 361.767; 175.662;1989.01.14 06:00:00; -33.1; 996.4;   7.0; 240.0; 324.092;  43.750;   0.566;133;
77.0170;-155.2830;2; 361.872; 175.346;1989.01.14 12:00:00; -29.5; 995.5;   6.0; 250.0; 327.487;  44.000;   0.566;133;
77.0170;-155.2372;2; 361.825; 175.244;1989.01.14 18:00:00; -30.1; 994.4;   7.0; 270.0; 328.630;  44.250;   0.191; 90;
77.0170;-155.1915;2; 361.778; 175.142;1989.01.15 00:00:00; -34.7; 995.0;   5.0; 280.0; 329.773;  44.500;   0.190; 90;
77.0170;-155.1458;2; 361.731; 175.040;1989.01.15 06:00:00; -36.5; 997.1;   5.0; 260.0; 330.916;  44.750;   0.190; 90;
77.0170;-155.1000;2; 361.684; 174.938;1989.01.15 12:00:00; -35.9; 999.1;   5.0; 260.0; 332.059;  45.000;   0.190; 90;
77.0170;-155.0833;2; 361.666; 174.901;1989.01.15 18:00:00; -36.6; 999.6;   4.0; 250.0; 332.477;  45.250;   0.070; 90;
77.0170;-155.0665;2; 361.649; 174.863;1989.01.16 00:00:00; -36.1;1001.9;   4.0; 240.0; 332.896;  45.500;   0.070; 90;
77.0170;-155.0497;2; 361.632; 174.826;1989.01.16 06:00:00; -35.4;1003.0;   4.0; 230.0; 333.314;  45.750;   0.070; 90;
77.0170;-155.0330;2; 361.614; 174.789;1989.01.16 12:00:00; -31.3;1004.2;   4.0; 240.0; 333.733;  46.000;   0.070; 90;
77.0170;-155.0205;2; 361.601; 174.761;1989.01.16 18:00:00; -33.4;1004.3;   4.0; 240.0; 334.045;  46.250;   0.052; 90;
77.0170;-155.0080;2; 361.589; 174.733;1989.01.17 00:00:00; -34.4;1005.0;   4.0; 240.0; 334.357;  46.500;   0.052; 90;
77.0170;-154.9955;2; 361.576; 174.705;1989.01.17 06:00:00; -34.6;1005.5;   4.0; 230.0; 334.669;  46.750;   0.052; 90;
77.0170;-154.9830;2; 361.563; 174.678;1989.01.17 12:00:00; -34.0;1006.6;   4.0; 240.0; 334.982;  47.000;   0.052; 90;
77.0170;-154.9830;2; 361.563; 174.678;1989.01.17 18:00:00; -34.0;1007.0;   4.0; 240.0; 334.982;  47.250;   0.000; 90;
77.0170;-154.9830;2; 361.563; 174.678;1989.01.18 00:00:00; -32.8;1007.5;   5.0; 210.0; 334.982;  47.500;   0.000; 90;
77.0170;-154.9830;2; 361.563; 174.678;1989.01.18 06:00:00; -33.2;1007.4;   5.0; 200.0; 334.982;  47.750;   0.000; 90;
77.0170;-154.9830;2; 361.563; 174.678;1989.01.18 12:00:00; -34.2;1007.8;   5.0; 190.0; 334.982;  48.000;   0.000; 90;
77.0210;-154.9748;2; 361.514; 174.678;1989.01.18 18:00:00; -35.1;1008.0;   5.0; 200.0; 335.473;  48.250;   0.082; 25;
77.0250;-154.9665;2; 361.466; 174.678;1989.01.19 00:00:00; -35.1;1008.7;   5.0; 190.0; 335.963;  48.500;   0.082; 25;
77.0290;-154.9583;2; 361.418; 174.678;1989.01.19 06:00:00; -36.0;1008.4;   6.0; 190.0; 336.453;  48.750;   0.082; 25;
77.0330;-154.9500;2; 361.370; 174.678;1989.01.19 12:00:00; -36.1;1007.8;   5.0; 180.0; 336.943;  49.000;   0.082; 25;
77.0540;-154.8754;2; 361.084; 174.610;1989.01.19 18:00:00; -36.9;1004.6;   7.0; 180.0; 339.931;  49.250;   0.498; 39;
77.0750;-154.8005;2; 360.799; 174.542;1989.01.20 00:00:00; -35.8;1001.4;   8.0; 180.0; 342.920;  49.500;   0.498; 39;
77.0960;-154.7254;2; 360.513; 174.474;1989.01.20 06:00:00; -34.8; 998.4;   9.0; 180.0; 345.909;  49.750;   0.498; 39;
77.1170;-154.6500;2; 360.228; 174.406;1989.01.20 12:00:00; -31.7; 997.6;   5.0; 240.0; 348.897;  50.000;   0.498; 39;